�N����,����,�~����,�C��,���x,�C��,����,���ϕ���,�ő�u�ԕ���,�ő厞����,���˗�,�I�_���x,�n�����x,�ő啗���N��,DTYPE
"23/07/30","00:10",0.0,26.3,76.8,1010.7,319.8,1.5,2.7,316.3,0.00,21.9,26.4,"00:09:28",1
"23/07/30","00:20",0.0,26.2,76.9,1010.0,337.2,1.6,2.8,341.7,0.00,21.9,26.4,"00:16:56",1
"23/07/30","00:30",0.0,26.2,77.0,1010.4,339.8,1.6,2.7,344.0,0.00,21.9,26.1,"00:26:24",1
"23/07/30","00:40",0.0,26.2,77.0,1010.4,340.2,1.6,2.7,347.7,0.00,21.9,26.2,"00:33:52",1
"23/07/30","00:50",0.0,26.3,76.6,1010.2,330.1,1.5,2.9,343.5,0.00,21.9,26.1,"00:45:52",1
"23/07/30","01:00",0.0,26.2,76.8,1010.4,15.8,0.5,1.1,355.5,0.00,21.8,26.3,"00:53:12",1
"23/07/30","01:10",0.0,25.8,77.7,1010.4,232.4,0.7,1.7,234.9,0.00,21.6,26.1,"01:05:20",1
"23/07/30","01:20",0.0,25.8,78.0,1010.4,322.4,1.1,1.9,331.5,0.00,21.7,26.1,"01:19:36",1
"23/07/30","01:30",0.0,25.8,78.3,1010.2,335.4,1.0,1.7,339.4,0.00,21.8,26.3,"01:21:20",1
"23/07/30","01:40",0.0,25.3,79.5,1010.2,328.1,0.7,1.1,339.8,0.00,21.5,26.1,"01:31:36",1
"23/07/30","01:50",0.0,25.1,80.7,1010.2,288.7,0.6,1.2,245.8,0.00,21.6,26.0,"01:45:52",1
"23/07/30","02:00",0.0,25.1,81.1,1010.2,294.5,0.6,1.4,328.5,0.00,21.7,25.9,"01:51:04",1
"23/07/30","02:10",0.0,25.1,81.5,1010.4,274.5,0.8,1.7,240.2,0.00,21.8,26.1,"02:07:40",1
"23/07/30","02:20",0.0,25.1,81.7,1010.2,330.9,1.2,2.6,350.7,0.00,21.8,26.0,"02:18:08",1
"23/07/30","02:30",0.0,25.0,81.9,1010.2,333.6,1.1,2.1,338.9,0.00,21.7,25.9,"02:24:16",1
"23/07/30","02:40",0.0,25.0,82.0,1010.4,317.9,1.0,1.6,342.0,0.00,21.8,25.9,"02:31:28",1
"23/07/30","02:50",0.0,25.0,81.8,1010.4,318.5,0.8,1.4,334.2,0.00,21.7,25.9,"02:42:40",1
"23/07/30","03:00",0.0,24.9,81.8,1010.7,309.3,1.0,2.0,313.0,0.00,21.6,25.9,"02:56:48",1
"23/07/30","03:10",0.0,24.9,81.7,1010.4,300.7,0.8,1.7,345.2,0.00,21.6,25.8,"03:00:32",1
"23/07/30","03:20",0.0,24.8,82.0,1010.7,309.8,0.8,1.6,256.7,0.00,21.6,25.7,"03:17:44",1
"23/07/30","03:30",0.0,24.7,82.1,1010.4,306.0,0.5,1.1,275.5,0.00,21.5,25.9,"03:25:12",1
"23/07/30","03:40",0.0,24.6,82.5,1010.4,309.9,0.7,1.3,337.1,0.00,21.5,25.8,"03:39:28",1
"23/07/30","03:50",0.0,24.7,83.4,1010.7,344.7,1.0,1.7,343.6,0.00,21.7,25.6,"03:44:16",1
"23/07/30","04:00",0.0,24.6,84.1,1010.9,317.8,0.6,1.2,254.9,0.00,21.8,25.5,"03:58:24",1
"23/07/30","04:10",0.0,24.7,84.2,1010.7,297.7,0.6,1.2,323.2,0.00,21.9,25.4,"04:04:00",1
"23/07/30","04:20",0.0,24.8,83.7,1010.9,312.4,0.8,1.7,338.3,0.00,21.9,25.5,"04:14:56",1
"23/07/30","04:30",0.0,24.9,83.3,1010.9,311.0,0.5,1.0,341.4,0.00,21.9,25.7,"04:22:00",1
"23/07/30","04:40",0.0,24.8,82.9,1010.7,316.6,1.0,1.8,339.0,0.00,21.7,25.4,"04:38:48",1
"23/07/30","04:50",0.0,24.9,82.7,1010.9,338.4,0.8,2.0,326.9,0.00,21.8,25.6,"04:40:32",1
"23/07/30","05:00",0.0,24.7,83.0,1010.7,311.1,0.7,1.0,322.4,0.00,21.7,25.5,"04:50:56",1
"23/07/30","05:10",0.0,24.5,83.3,1010.9,313.2,0.7,1.2,345.2,0.00,21.5,25.3,"05:00:08",1
"23/07/30","05:20",0.0,24.4,83.6,1010.4,334.4,0.6,1.0,342.4,0.00,21.5,25.4,"05:14:00",1
"23/07/30","05:30",0.0,24.3,84.3,1010.7,339.5,0.6,1.0,0.7,0.00,21.5,25.3,"05:22:08",1
"23/07/30","05:40",0.0,24.4,84.9,1010.7,326.2,0.8,1.7,329.1,0.00,21.7,25.2,"05:32:32",1
"23/07/30","05:50",0.0,24.5,85.1,1010.9,311.5,1.0,1.6,345.7,0.00,21.9,25.3,"05:41:20",1
"23/07/30","06:00",0.0,25.0,84.9,1010.7,296.3,0.8,2.0,311.8,0.02,22.3,25.3,"05:56:32",1
"23/07/30","06:10",0.0,25.5,83.5,1010.4,320.5,1.2,2.4,345.9,0.04,22.5,25.2,"06:04:40",1
"23/07/30","06:20",0.0,26.2,81.7,1010.7,332.8,0.8,1.4,351.4,0.04,22.9,25.1,"06:10:48",1
"23/07/30","06:30",0.0,27.1,80.0,1010.7,334.0,0.5,1.2,298.2,0.06,23.4,25.2,"06:20:08",1
"23/07/30","06:40",0.0,28.3,77.5,1010.7,17.2,0.2,1.1,15.7,0.07,24.0,25.4,"06:30:40",1
"23/07/30","06:50",0.0,28.4,74.7,1010.4,4.4,0.2,1.0,353.6,0.05,23.5,25.2,"06:48:00",1
"23/07/30","07:00",0.0,28.1,74.3,1010.4,359.1,0.6,1.4,5.4,0.03,23.1,25.2,"06:58:40",1
"23/07/30","07:10",0.0,27.8,75.7,1010.7,344.5,0.6,1.0,355.8,0.06,23.2,25.3,"07:09:20",1
"23/07/30","07:20",0.0,28.3,75.1,1010.4,0.4,0.7,1.2,337.3,0.13,23.5,25.4,"07:10:24",1
"23/07/30","07:30",0.0,29.4,73.1,1010.4,341.9,0.5,1.2,339.5,0.16,24.1,25.3,"07:23:36",1
"23/07/30","07:40",0.0,30.2,70.0,1010.7,2.8,0.5,1.3,15.4,0.19,24.2,25.4,"07:36:00",1
"23/07/30","07:50",0.0,30.6,67.5,1011.6,18.1,0.8,1.7,351.6,0.20,23.9,25.3,"07:41:04",1
"23/07/30","08:00",0.0,31.3,66.2,1011.6,30.7,0.7,2.7,20.8,0.23,24.3,25.1,"07:59:52",1
"23/07/30","08:10",0.0,32.0,64.2,1012.3,72.4,0.5,1.7,2.6,0.26,24.4,25.3,"08:09:36",1
"23/07/30","08:20",0.0,32.2,63.4,1012.8,118.2,0.8,2.4,128.7,0.30,24.4,25.4,"08:13:28",1
"23/07/30","08:30",0.0,32.1,64.1,1012.6,155.3,1.1,2.4,202.9,0.30,24.5,25.4,"08:21:12",1
"23/07/30","08:40",0.0,32.1,62.5,1013.0,118.9,0.7,2.1,1.8,0.27,24.1,25.3,"08:30:02",1
"23/07/30","08:50",0.0,32.5,62.4,1012.8,33.6,0.6,2.0,348.9,0.32,24.4,25.5,"08:48:40",1
"23/07/30","09:00",0.0,32.1,63.3,1013.0,342.1,0.6,1.8,354.9,0.22,24.3,25.5,"08:50:48",1
"23/07/30","09:10",0.0,31.5,64.4,1012.6,311.3,0.6,1.7,234.8,0.13,24.0,25.7,"09:05:04",1
"23/07/30","09:20",0.0,31.2,66.1,1012.3,358.6,0.7,1.4,2.7,0.15,24.2,25.6,"09:18:32",1
"23/07/30","09:30",0.0,31.3,66.1,1012.6,180.4,0.8,2.0,195.8,0.22,24.3,25.6,"09:28:08",1
"23/07/30","09:40",0.0,32.0,64.4,1012.3,200.8,1.5,3.3,218.6,0.35,24.5,25.6,"09:36:16",1
"23/07/30","09:50",0.0,32.2,61.7,1012.3,223.4,1.5,3.2,193.5,0.39,24.0,25.8,"09:44:48",1
"23/07/30","10:00",0.0,32.1,63.7,1012.3,202.9,1.0,2.0,220.3,0.24,24.4,26.0,"09:51:44",1
"23/07/30","10:10",0.0,32.5,62.2,1012.6,171.1,1.0,3.2,140.0,0.31,24.4,25.8,"10:00:24",1
"23/07/30","10:20",0.0,33.4,61.6,1012.8,115.1,0.8,2.9,122.2,0.42,25.1,25.8,"10:17:52",1
"23/07/30","10:30",0.0,34.6,59.5,1012.8,133.1,0.7,2.5,170.0,0.54,25.6,25.9,"10:28:40",1
"23/07/30","10:40",0.0,34.8,56.4,1013.3,161.9,1.3,2.6,140.4,0.60,24.9,26.1,"10:39:36",1
"23/07/30","10:50",0.0,34.0,56.7,1013.0,159.9,1.1,2.2,106.0,0.35,24.2,26.0,"10:41:36",1
"23/07/30","11:00",0.0,33.7,57.3,1012.8,156.6,1.0,3.5,230.1,0.24,24.1,26.4,"10:57:04",1
"23/07/30","11:10",0.0,33.1,58.8,1011.9,178.0,1.1,2.7,126.7,0.25,24.0,26.3,"11:08:24",1
"23/07/30","11:20",0.0,33.2,59.6,1011.9,155.7,0.8,2.7,131.1,0.24,24.3,26.2,"11:18:08",1
"23/07/30","11:30",0.0,33.1,60.3,1011.9,194.1,1.3,3.2,238.7,0.25,24.4,26.3,"11:26:48",1
"23/07/30","11:40",0.0,33.4,59.7,1011.9,164.4,0.7,2.4,185.3,0.28,24.5,26.7,"11:32:16",1
"23/07/30","11:50",0.0,34.2,57.1,1012.1,209.3,1.5,3.6,220.9,0.52,24.5,26.6,"11:43:36",1
"23/07/30","12:00",0.0,34.7,54.6,1011.9,271.7,1.3,5.1,223.1,0.58,24.2,26.6,"11:52:24",1
"23/07/30","12:10",0.0,35.3,56.3,1011.9,35.9,1.0,2.2,62.9,0.49,25.3,26.6,"12:03:28",1
"23/07/30","12:20",0.0,35.7,53.0,1012.3,198.6,1.3,2.9,341.7,0.64,24.7,26.8,"12:18:56",1
"23/07/30","12:30",0.0,35.3,53.1,1011.9,0.7,1.3,3.9,21.5,0.39,24.3,26.9,"12:22:48",1
"23/07/30","12:40",0.0,34.8,53.8,1011.6,354.7,1.2,2.6,346.2,0.31,24.1,26.9,"12:36:56",1
"23/07/30","12:50",0.0,34.6,55.4,1011.4,343.3,1.0,2.6,346.2,0.23,24.4,27.0,"12:47:20",1
"23/07/30","13:00",0.0,34.1,56.9,1010.7,349.5,1.6,3.5,332.4,0.23,24.4,26.8,"12:57:52",1
"23/07/30","13:10",0.0,34.0,57.4,1010.7,340.5,1.3,2.5,351.6,0.22,24.4,27.0,"13:06:24",1
"23/07/30","13:20",0.0,34.2,55.2,1010.4,272.8,1.1,2.6,235.5,0.28,24.0,27.2,"13:15:12",1
"23/07/30","13:30",0.0,34.7,53.8,1010.7,253.6,1.3,3.3,227.7,0.36,24.0,27.2,"13:29:52",1
"23/07/30","13:40",0.0,35.5,53.9,1011.2,232.5,1.6,3.2,196.2,0.47,24.8,27.3,"13:38:56",1
"23/07/30","13:50",0.0,35.3,53.2,1010.9,310.6,1.6,4.2,348.9,0.51,24.4,27.3,"13:46:40",1
"23/07/30","14:00",0.0,35.9,50.9,1010.9,309.1,1.3,2.8,319.7,0.52,24.2,27.0,"13:52:48",1
"23/07/30","14:10",0.0,36.6,49.8,1010.9,290.0,1.0,2.8,334.0,0.51,24.5,27.4,"14:00:16",1
"23/07/30","14:20",0.0,36.9,48.8,1011.2,340.7,1.0,2.8,351.2,0.48,24.4,27.6,"14:10:40",1
"23/07/30","14:30",0.0,36.8,46.5,1010.9,282.4,1.3,3.6,237.5,0.44,23.5,27.7,"14:23:44",1
"23/07/30","14:40",0.0,36.3,47.3,1010.7,275.6,1.1,4.0,334.2,0.29,23.3,27.7,"14:34:08",1
"23/07/30","14:50",0.0,35.8,47.7,1010.2,308.6,1.2,3.5,305.6,0.27,23.0,27.7,"14:48:48",1
"23/07/30","15:00",0.0,36.2,46.8,1009.7,328.6,1.5,3.7,337.4,0.38,23.1,27.7,"14:52:32",1
"23/07/30","15:10",0.0,36.6,46.9,1010.0,221.0,1.8,4.2,239.4,0.41,23.5,27.8,"15:08:48",1
"23/07/30","15:20",0.0,36.5,45.4,1009.7,219.2,2.0,4.0,240.5,0.36,22.8,28.0,"15:11:44",1
"23/07/30","15:30",0.0,36.9,47.2,1009.7,230.2,1.2,3.5,218.5,0.31,23.8,27.7,"15:20:08",1
"23/07/30","15:40",0.0,36.6,44.6,1009.5,260.6,1.2,2.6,265.6,0.25,22.6,27.7,"15:36:16",1
"23/07/30","15:50",0.0,36.3,46.2,1009.3,292.7,1.2,2.2,238.0,0.24,22.9,28.0,"15:47:12",1
"23/07/30","16:00",0.0,36.2,45.9,1009.5,319.7,1.3,3.2,321.1,0.22,22.7,28.0,"15:50:24",1
"23/07/30","16:10",0.0,35.6,46.5,1009.0,322.1,1.3,3.3,353.9,0.13,22.4,28.0,"16:04:48",1
"23/07/30","16:20",0.0,35.3,47.3,1008.6,330.2,1.2,3.5,344.3,0.13,22.4,27.8,"16:19:20",1
"23/07/30","16:30",0.0,35.9,47.2,1008.6,306.5,1.1,2.9,327.4,0.20,22.9,28.1,"16:20:32",1
"23/07/30","16:40",0.0,36.2,46.0,1008.6,267.9,1.1,2.8,228.1,0.20,22.8,27.8,"16:38:16",1
"23/07/30","16:50",0.0,36.3,45.9,1008.6,318.9,1.2,3.3,349.4,0.16,22.8,27.7,"16:42:32",1
"23/07/30","17:00",0.0,35.6,47.9,1008.6,315.1,1.0,3.2,334.5,0.08,22.9,27.7,"16:51:12",1
"23/07/30","17:10",0.0,35.0,49.6,1008.3,309.5,0.8,2.6,330.7,0.06,22.9,27.9,"17:06:08",1
"23/07/30","17:20",0.0,34.9,50.1,1007.8,319.5,0.7,2.1,336.4,0.06,23.0,27.6,"17:14:32",1
"23/07/30","17:30",0.0,34.9,51.3,1007.8,336.9,1.1,2.6,337.6,0.06,23.4,27.7,"17:21:28",1
"23/07/30","17:40",0.0,34.9,52.0,1007.6,340.1,1.0,2.2,358.0,0.05,23.6,27.6,"17:31:28",1
"23/07/30","17:50",0.0,34.5,52.8,1007.8,336.5,1.0,1.7,339.8,0.04,23.5,27.9,"17:43:04",1
"23/07/30","18:00",0.0,34.1,54.8,1007.6,346.3,0.8,1.6,352.0,0.01,23.8,27.7,"17:53:12",1
"23/07/30","18:10",0.0,33.6,56.0,1007.6,357.8,0.6,1.1,352.4,0.00,23.6,27.7,"18:01:04",1
"23/07/30","18:20",0.0,33.5,56.4,1007.6,290.0,0.7,2.1,346.6,0.00,23.7,27.7,"18:10:02",1
"23/07/30","18:30",0.0,33.1,58.4,1008.1,297.1,1.2,3.3,348.3,0.00,23.9,27.7,"18:29:28",1
"23/07/30","18:40",0.0,32.7,58.7,1007.4,329.4,1.3,2.8,343.0,0.00,23.6,27.6,"18:35:12",1
"23/07/30","18:50",0.0,32.3,59.3,1007.4,334.3,1.3,2.7,310.1,0.00,23.4,27.5,"18:40:40",1
"23/07/30","19:00",0.0,31.9,60.5,1007.6,343.7,1.2,3.1,340.4,0.00,23.3,27.4,"18:55:04",1
"23/07/30","19:10",0.0,31.7,61.0,1007.4,16.7,1.0,2.7,21.5,0.00,23.3,27.6,"19:03:52",1
"23/07/30","19:20",0.0,31.4,61.6,1007.4,67.8,0.3,1.3,121.2,0.00,23.2,27.5,"19:12:08",1
"23/07/30","19:30",0.0,31.1,62.2,1007.4,76.2,0.6,2.0,345.7,0.00,23.1,27.2,"19:27:36",1
"23/07/30","19:40",0.0,30.9,63.4,1007.4,145.5,0.8,2.0,181.9,0.00,23.2,27.4,"19:36:16",1
"23/07/30","19:50",0.0,30.7,64.0,1007.4,151.9,1.1,2.8,138.3,0.00,23.1,27.3,"19:43:44",1
"23/07/30","20:00",0.0,30.5,64.5,1007.1,161.9,0.8,2.0,194.0,0.00,23.1,27.3,"19:51:44",1
"23/07/30","20:10",0.0,30.5,65.7,1007.4,26.4,0.7,1.6,3.7,0.00,23.4,27.3,"20:05:04",1
"23/07/30","20:20",0.0,29.8,67.4,1007.4,338.3,0.8,1.3,343.9,0.00,23.1,27.2,"20:16:16",1
"23/07/30","20:30",0.0,29.6,68.8,1007.4,332.7,1.2,2.7,351.3,0.00,23.3,27.2,"20:22:32",1
"23/07/30","20:40",0.0,29.5,69.7,1008.1,323.2,1.0,1.9,334.4,0.00,23.4,27.2,"20:35:36",1
"23/07/30","20:50",0.0,29.4,70.0,1008.3,333.9,1.6,2.9,342.2,0.00,23.4,27.2,"20:43:04",1
"23/07/30","21:00",0.0,29.3,70.5,1008.1,329.1,1.1,2.0,333.8,0.00,23.4,27.2,"20:59:20",1
"23/07/30","21:10",0.0,29.1,71.0,1008.3,345.3,1.0,1.9,341.1,0.00,23.3,27.0,"21:06:40",1
"23/07/30","21:20",0.0,28.9,71.2,1008.8,345.5,1.1,2.7,335.0,0.00,23.2,26.8,"21:19:12",1
"23/07/30","21:30",0.0,29.0,70.6,1008.8,331.4,1.3,3.4,321.2,0.00,23.2,27.1,"21:20:08",1
"23/07/30","21:40",0.0,29.0,70.6,1009.3,315.5,1.0,2.8,350.2,0.00,23.2,27.0,"21:31:36",1
"23/07/30","21:50",0.0,28.8,72.6,1008.8,320.5,0.6,1.4,338.5,0.00,23.4,26.6,"21:49:44",1
"23/07/30","22:00",0.0,28.2,73.7,1009.5,335.8,1.0,2.2,16.5,0.00,23.1,27.0,"21:58:40",1
"23/07/30","22:10",0.0,28.1,73.3,1009.0,329.7,1.3,2.6,349.2,0.00,22.9,26.8,"22:05:52",1
"23/07/30","22:20",0.0,28.1,73.1,1008.8,306.7,0.7,2.4,329.0,0.00,22.9,26.9,"22:17:12",1
"23/07/30","22:30",0.0,28.0,73.1,1009.0,311.5,1.1,2.2,312.4,0.00,22.8,26.8,"22:26:40",1
"23/07/30","22:40",0.0,27.9,73.8,1009.3,317.6,0.7,1.2,342.7,0.00,22.8,26.7,"22:32:40",1
"23/07/30","22:50",0.0,27.5,74.8,1008.8,325.4,1.1,2.1,343.3,0.00,22.7,26.7,"22:45:52",1
"23/07/30","23:00",0.0,27.6,74.6,1009.3,340.1,1.6,2.5,355.2,0.00,22.7,26.6,"22:52:48",1
"23/07/30","23:10",0.0,27.5,75.1,1009.7,342.4,1.3,3.2,347.4,0.00,22.7,26.5,"23:00:08",1
"23/07/30","23:20",0.0,27.2,75.5,1009.0,343.7,1.2,2.8,332.6,0.00,22.5,26.8,"23:19:28",1
"23/07/30","23:30",0.0,27.4,74.9,1009.3,341.9,2.0,3.4,348.7,0.00,22.6,26.4,"23:27:28",1
"23/07/30","23:40",0.0,27.6,74.0,1009.7,337.4,2.1,3.7,340.6,0.00,22.6,26.4,"23:31:12",1
"23/07/30","23:50",0.0,27.6,74.3,1009.5,324.9,1.3,3.1,333.0,0.00,22.7,26.4,"23:40:16",1
"23/07/30","24:00",0.0,27.6,75.7,1009.5,326.5,1.2,2.2,305.6,0.00,23.0,26.2,"23:52:00",1
